Regional Weather Roundup
Issued by NWS

Home | Current Version | Previous Version | Text Only | Print | Product List | Glossary Off
Versions: 1 2 3 4 5 6 7 8 9 10 11 12 13 14 15 16 17 18 19 20 21 22 23 24 25 26 27 28 29 30 31 32 33 34 35 36 37 38 39 40 41 42 43 44 45 46 47 48 49 50

000
ASUS43 KFSD 281910
RWRSD

WEATHER ROUNDUP FOR SOUTH DAKOTA
NATIONAL WEATHER SERVICE SIOUX FALLS SD
200 PM CDT THU JUL 28 2016

NOTE: "FAIR" INDICATES FEW OR NO CLOUDS BELOW 12,000 FEET WITH NO
SIGNIFICANT WEATHER AND/OR OBSTRUCTIONS TO VISIBILITY.


SDZ001>005-009-010-012>017-282000-
NORTHWEST AND NORTH CENTRAL SOUTH DAKOTA

CITY           SKY/WX    TMP DP  RH WIND       PRES   REMARKS
BUFFALO          N/A     75  60  59 NE5       30.07F
FAITH            N/A     71  59  65 SW6       30.11F
MOBRIDGE       CLOUDY    75  54  47 NE10      30.10F
$$

SDZ012>016-024>037-041>051-057-063-072>074-282000-
SOUTHWEST AND SOUTH CENTRAL SOUTH DAKOTA

CITY           SKY/WX    TMP DP  RH WIND       PRES   REMARKS
RAPID CTY ARPT CLOUDY    69  57  65 NW9       30.15R
PIERRE         PTSUNNY   80  56  43 S12       30.07F
CUSTER         CLOUDY    63  50  62 W9G18     30.26R
ELLSWORTH AFB  PTSUNNY   71  61  70 N12       30.15R
PHILIP           N/A     69  32  25 SE13      30.08R THUNDER
PINE RIDGE     MOSUNNY   70  59  68 CALM      30.14F
WINNER         CLOUDY    77  63  61 S7        30.10S
$$

SDZ004>011-016>023-039-040-282000-
NORTHEAST SOUTH DAKOTA

CITY           SKY/WX    TMP DP  RH WIND       PRES   REMARKS
ABERDEEN       MOSUNNY   76  63  64 N5        30.10F
WATERTOWN      CLOUDY    77  57  50 E10       30.09S
BROOKINGS      MOSUNNY   73  60  63 NE13      30.07F
SISSETON         N/A     75  59  57 VRB5      30.08S
$$

SDZ017-020-022-023-036>040-048>070-282000-
SOUTHEAST SOUTH DAKOTA

CITY           SKY/WX    TMP DP  RH WIND       PRES   REMARKS
SIOUX FALLS    PTSUNNY   75  63  66 N9        30.05F
HURON          MOSUNNY   78  60  53 VRB5      30.06F
CHAMBERLAIN    PTSUNNY   81  59  47 CALM      30.08S
MITCHELL       SUNNY     80  58  46 N9        30.06F
YANKTON        SUNNY     79  57  47 NW8       30.03F
$$

ABBREVIATIONS USED IN REMARKS
   TC - TEMPERATURE IN CELSIUS
  WCI - WIND CHILL INDEX
   HX - HEAT INDEX
  VSB - VISIBILITY





USA.gov is the U.S. government's official web portal to all federal, state and local government web resources and services.